Edinburg, TX

9:07 PM CDT on June 25, 2017 (GMT -0500)
Edinburg

Weather History for KEBG - October, 2012

Change the Weather History Date:

Wednesday, October 31, 2012

  Actual Average (KMFE) Record (KMFE)
Temperature  
Mean Temperature 78 °F -  
Max Temperature 92 °F 81 °F 95 °F (2010)
Min Temperature 65 °F 62 °F 41 °F (1993)
Cooling Degree Days 14    
Growing Degree Days 28 (Base 50)    
Moisture  
Dew Point 62 °F    
Average Humidity 64    
Maximum Humidity 90    
Minimum Humidity 28    
Precipitation  
Precipitation 0.00 in - - ()
Sea Level Pressure  
Sea Level Pressure 29.97 in    
Wind  
Wind Speed 5 mph (SE)    
Max Wind Speed 12 mph    
Max Gust Speed 16 mph    
Visibility 8 miles    
Events      
Averages and records for this station are not official NWS values.
T = Trace of Precipitation, MM = Missing Value Source: NWS Daily Summary

Daily Weather History Graph

Daily Weather History Graph

Search for Another Location

Airport or City:

Trip Planner

Search our weather history database for the weather conditions in past years. The results will help you decide how hot, cold, wet, or windy it might be!

Date:

Astronomy

Oct. 31, 2012 Rise Set
Actual Time 7:41 AM CDT 6:50 PM CDT
Civil Twilight 7:17 AM CDT 7:14 PM CDT
Nautical Twilight 6:50 AM CDT 7:41 PM CDT
Astronomical Twilight 6:23 AM CDT 8:08 PM CDT
Moon 8:13 PM CDT (10/31) 9:13 AM CDT (10/31)
Length of Visible Light 11h 56m
Length of Day
11h 09m
Full, 97% of the Moon is Illuminated
Oct 31
Full
Nov 6
Last Quarter
Nov 13
New
Nov 20
First Quarter
Nov 28
Full

Hourly Weather History & Observations

Time (CDT) Temp. Heat Index Dew Point Humidity Pressure Visibility Wind Dir Wind Speed Gust Speed Precip Events Conditions
12:15 AM 67.5 °F - 61.7 °F 82% 29.99 in 10.0 mi SE 4.6 mph - N/A   Clear
12:35 AM 67.6 °F - 61.9 °F 82% 29.99 in 10.0 mi SE 4.6 mph - N/A   Clear
12:55 AM 67.5 °F - 62.1 °F 83% 29.99 in 10.0 mi SE 3.5 mph - N/A   Clear
1:15 AM 67.5 °F - 62.1 °F 83% 29.98 in 10.0 mi ESE 3.5 mph - N/A   Clear
1:35 AM 68.0 °F - 62.6 °F 83% 29.98 in 10.0 mi ESE 4.6 mph - N/A   Scattered Clouds
1:55 AM 68.0 °F - 62.6 °F 83% 29.97 in 10.0 mi ESE 4.6 mph - N/A   Scattered Clouds
2:15 AM 67.3 °F - 62.2 °F 84% 29.97 in 10.0 mi ESE 4.6 mph - N/A   Clear
2:35 AM 67.5 °F - 62.6 °F 84% 29.97 in 10.0 mi ESE 4.6 mph - N/A   Clear
2:55 AM 67.1 °F - 62.4 °F 85% 29.97 in 10.0 mi Calm Calm - N/A   Clear
3:15 AM 66.2 °F - 61.7 °F 85% 29.96 in 10.0 mi Calm Calm - N/A   Clear
3:35 AM 66.2 °F - 61.9 °F 86% 29.96 in 10.0 mi East 4.6 mph - N/A   Clear
3:55 AM 66.0 °F - 61.7 °F 86% 29.96 in 7.0 mi East 4.6 mph - N/A   Clear
4:15 AM 66.2 °F - 61.9 °F 86% 29.96 in 10.0 mi East 4.6 mph - N/A   Scattered Clouds
4:35 AM 66.6 °F - 62.6 °F 87% 29.96 in 10.0 mi East 4.6 mph - N/A   Clear
4:55 AM 66.2 °F - 62.2 °F 87% 29.96 in 10.0 mi East 4.6 mph - N/A   Clear
5:15 AM 66.2 °F - 62.2 °F 87% 29.96 in 10.0 mi ESE 5.8 mph - N/A   Clear
5:35 AM 66.6 °F - 62.8 °F 88% 29.96 in 10.0 mi ESE 5.8 mph - N/A   Clear
5:55 AM 65.7 °F - 62.1 °F 88% 29.96 in 10.0 mi ESE 4.6 mph - N/A   Clear
6:15 AM 66.2 °F - 62.8 °F 89% 29.96 in 10.0 mi East 5.8 mph - N/A   Clear
6:35 AM 66.2 °F - 62.6 °F 88% 29.96 in 10.0 mi ESE 4.6 mph - N/A   Clear
6:55 AM 66.2 °F - 62.8 °F 89% 29.97 in 10.0 mi East 4.6 mph - N/A   Clear
7:15 AM 66.2 °F - 63.0 °F 89% 29.97 in 10.0 mi ESE 3.5 mph - N/A   Clear
7:35 AM 66.2 °F - 63.0 °F 89% 29.98 in 10.0 mi East 4.6 mph - N/A   Clear
7:55 AM 66.0 °F - 63.1 °F 90% 29.98 in 7.0 mi East 3.5 mph - N/A   Clear
8:15 AM 66.0 °F - 63.1 °F 90% 29.99 in 7.0 mi ESE 3.5 mph - N/A   Clear
8:35 AM 67.5 °F - 64.6 °F 90% 29.99 in 7.0 mi Calm Calm - N/A   Clear
8:55 AM 69.3 °F - 65.8 °F 89% 30.00 in 7.0 mi Calm Calm - N/A   Clear
9:15 AM 70.9 °F - 66.6 °F 86% 30.01 in 7.0 mi Calm Calm - N/A   Clear
9:35 AM 74.5 °F - 67.1 °F 78% 30.01 in 10.0 mi South 6.9 mph - N/A   Clear
9:55 AM 76.3 °F - 66.7 °F 72% 30.02 in 10.0 mi South 8.1 mph - N/A   Clear
10:15 AM 78.6 °F - 66.4 °F 66% 30.02 in 10.0 mi South 8.1 mph - N/A   Clear
10:35 AM 81.0 °F 83.0 °F 66.0 °F 60% 30.02 in 7.0 mi SSW 8.1 mph - N/A   Clear
10:55 AM 82.2 °F 84.0 °F 64.9 °F 56% 30.02 in 7.0 mi South 8.1 mph - N/A   Clear
11:15 AM 82.9 °F 84.6 °F 64.8 °F 54% 30.02 in 7.0 mi SSE 5.8 mph - N/A   Clear
11:35 AM 84.6 °F 86.1 °F 64.6 °F 51% 30.02 in 7.0 mi South 4.6 mph - N/A   Clear
11:55 AM 85.8 °F 86.8 °F 63.7 °F 47% 30.02 in 7.0 mi South 8.1 mph - N/A   Clear
12:15 PM 87.3 °F 88.0 °F 62.8 °F 44% 30.02 in 10.0 mi South 10.4 mph - N/A   Clear
12:35 PM 88.3 °F 88.9 °F 62.2 °F 42% 30.01 in 7.0 mi South 9.2 mph - N/A   Clear
12:55 PM 88.7 °F 88.8 °F 61.3 °F 40% 29.99 in 7.0 mi SSE 6.9 mph - N/A   Clear
1:15 PM 89.8 °F 89.1 °F 59.7 °F 36% 29.98 in 7.0 mi SSE 10.4 mph - N/A   Scattered Clouds
1:35 PM 90.3 °F 88.8 °F 56.3 °F 32% 29.97 in 7.0 mi SE 6.9 mph - N/A   Scattered Clouds
1:55 PM 90.7 °F 89.5 °F 57.7 °F 33% 29.96 in 7.0 mi SSW 4.6 mph - N/A   Scattered Clouds
2:15 PM 91.0 °F 89.4 °F 56.1 °F 31% 29.95 in 7.0 mi South 5.8 mph 16.1 mph N/A   Scattered Clouds
2:35 PM 90.9 °F 89.4 °F 56.8 °F 32% 29.95 in 7.0 mi ESE 6.9 mph - N/A   Clear
2:55 PM 91.2 °F 89.1 °F 54.9 °F 29% 29.94 in 7.0 mi SE 6.9 mph - N/A   Scattered Clouds
3:15 PM 92.1 °F 90.2 °F 55.2 °F 29% 29.93 in 7.0 mi SSE 9.2 mph 16.1 mph N/A   Clear
3:35 PM 92.5 °F 90.4 °F 54.5 °F 28% 29.93 in 10.0 mi ESE 8.1 mph - N/A   Scattered Clouds
3:55 PM 91.2 °F 89.4 °F 55.6 °F 30% 29.92 in 7.0 mi SE 8.1 mph - N/A   Scattered Clouds
4:15 PM 92.3 °F 90.2 °F 55.0 °F 28% 29.91 in 7.0 mi SSW 6.9 mph - N/A   Scattered Clouds
4:35 PM 91.9 °F 90.3 °F 55.9 °F 30% 29.91 in 7.0 mi SE 8.1 mph - N/A   Scattered Clouds
4:55 PM 91.4 °F 89.9 °F 56.5 °F 31% 29.91 in 7.0 mi ESE 8.1 mph - N/A   Clear
5:15 PM 91.9 °F 90.3 °F 55.9 °F 30% 29.91 in 7.0 mi SE 6.9 mph - N/A   Scattered Clouds
5:35 PM 90.9 °F 88.9 °F 55.6 °F 30% 29.91 in 7.0 mi SE 6.9 mph - N/A   Scattered Clouds
5:55 PM 90.5 °F 88.7 °F 56.3 °F 31% 29.91 in 7.0 mi SE 9.2 mph - N/A   Clear
6:15 PM 89.6 °F 88.1 °F 57.0 °F 33% 29.91 in 7.0 mi SSE 6.9 mph - N/A   Clear
6:35 PM 87.8 °F 86.7 °F 57.6 °F 36% 29.91 in 7.0 mi SSE 6.9 mph - N/A   Clear
6:55 PM 86.5 °F 86.1 °F 59.9 °F 40% 29.92 in 7.0 mi South 9.2 mph - N/A   Clear
7:15 PM 84.9 °F 84.8 °F 60.3 °F 43% 29.93 in 10.0 mi SSE 8.1 mph - N/A   Clear
7:35 PM 83.5 °F 84.1 °F 62.1 °F 48% 29.94 in 10.0 mi SSE 8.1 mph - N/A   Clear
7:55 PM 82.8 °F 84.5 °F 64.9 °F 55% 29.95 in 7.0 mi SSE 9.2 mph - N/A   Clear
8:15 PM 82.4 °F 84.4 °F 65.8 °F 57% 29.96 in 10.0 mi SSE 10.4 mph - N/A   Clear
8:35 PM 81.5 °F 83.7 °F 66.2 °F 60% 29.97 in 7.0 mi SSE 10.4 mph - N/A   Clear
8:55 PM 80.6 °F 82.9 °F 66.9 °F 63% 29.97 in 10.0 mi SE 10.4 mph - N/A   Clear
9:15 PM 79.5 °F - 67.3 °F 66% 29.98 in 7.0 mi SE 11.5 mph - N/A   Clear
9:35 PM 78.8 °F - 68.0 °F 69% 29.99 in 10.0 mi SSE 9.2 mph - N/A   Clear
9:55 PM 78.1 °F - 68.4 °F 72% 29.99 in 10.0 mi SSE 8.1 mph - N/A   Clear
10:15 PM 77.9 °F - 68.9 °F 74% 29.99 in 7.0 mi SSE 8.1 mph - N/A   Clear
10:35 PM 77.2 °F - 69.3 °F 76% 30.00 in 7.0 mi SSE 6.9 mph - N/A   Clear
10:55 PM 77.0 °F - 69.3 °F 77% 30.01 in 7.0 mi SSE 5.8 mph - N/A   Clear
11:15 PM 77.0 °F - 69.8 °F 78% 30.01 in 7.0 mi SSE 6.9 mph - N/A   Clear
11:35 PM 76.6 °F - 69.8 °F 79% 30.01 in 7.0 mi SSE 8.1 mph - N/A   Clear
11:55 PM 76.8 °F - 69.8 °F 79% 30.01 in 7.0 mi SSE 6.9 mph - N/A   Clear